Location: Newark
(25.4800°N, 85.7200°E)
Time: 02:32:34
(UTC+00:00)

Courier 1B - Visible Passes

Search period start: 25 August 2019 00:00
Search period end: 04 September 2019 00:00
Orbit: 962 x 1209 km, 28.3° (Epoch: 24 August)

Date Brightness Start Highest point End Pass type
(mag) Time Alt. Az. Time Alt. Az. Time Alt. Az.
25 Aug 7.8 13:04:13 10° W 13:10:58 70° N 13:17:26 10° E visible
25 Aug 7.4 14:58:36 10° WNW 15:04:46 75° WSW 15:04:46 75° WSW visible
26 Aug 7.4 14:04:43 10° WNW 14:11:24 89° N 14:14:15 36° ESE visible
26 Aug 9.5 15:59:13 10° W 16:01:08 19° W 16:01:08 19° W visible
27 Aug 7.6 13:10:48 10° WNW 13:17:38 79° N 13:23:45 12° E visible
27 Aug 8.0 15:05:14 10° W 15:10:38 49° SW 15:10:38 49° SW visible
28 Aug 7.6 14:11:17 10° W 14:17:56 67° SSW 14:20:10 42° SE visible
28 Aug 9.9 16:06:29 10° W 16:07:04 12° WSW 16:07:04 12° WSW visible
29 Aug 7.6 13:17:20 10° WNW 13:24:12 81° SSW 13:29:44 15° ESE visible
29 Aug 8.8 15:12:10 10° W 15:16:38 30° SW 15:16:38 30° SW visible
30 Aug 8.2 14:18:00 10° W 14:24:19 44° SSW 14:26:14 35° SSE visible
31 Aug 8.0 13:23:55 10° W 13:30:39 57° SSW 13:35:53 16° SE visible
31 Aug 9.4 15:19:47 10° WSW 15:22:47 18° SW 15:22:47 18° SW visible
01 Sep 8.9 14:25:08 10° W 14:30:36 26° SSW 14:32:29 23° S visible
02 Sep 8.7 13:30:45 10° W 13:36:58 36° SSW 13:42:13 13° SSE visible
03 Sep 9.6 14:33:22 10° WSW 14:36:48 14° SSW 14:38:55 12° SSW visible
